{"data":{"norad_id":81792,"intl_designator":"","name":"UNKNOWN","alt_names":[],"object_type":"UNKNOWN","status":"UNKNOWN","operator":null,"country":null,"launch_date":null,"launch_site_code":null,"launch_vehicle":null,"mission":null,"orbit_class":"UNKNOWN","rcs_meters":null,"size_class":null,"mass_kg":null,"dimensions":null,"purposes":[],"wikipedia_slug":null,"has_3d_model":false,"image_url":null,"decayed_at":null,"tle_current":{"epoch":"2026-09-18T05:41:18.217824Z","epoch_age_seconds":210279,"freshness":"STALE","line1":"1 81792U          26261.23701641  .00001015  00000+0  40336-3 0  9993","line2":"2 81792  65.7985 187.1080 0881916 158.7594 205.2583 13.11625691116688","mean_motion":13.11625691,"eccentricity":0.0881916,"inclination_deg":65.7985,"raan_deg":187.108,"arg_perigee_deg":158.7594,"mean_anomaly_deg":205.2583,"bstar":0.00040336,"rev_number":11668,"period_min":109.78741952684,"perigee_km":547.06034224729,"apogee_km":1886.6931728475,"semimajor_km":7595.0137575474,"source":"CELESTRAK","updated_at":"2026-09-20T09:00:32.395044Z"}}}